Погода в Бяла-Подляске

Польша     52°02′01″N   23°07′09″E
темп.,
°C
ветер,
м/с
пор.,
м/с
влажн.,
%
обл.,
%
осадки,
мм/ч
давл.,
гПа
погр.,
м
12 августа, пт
пт1223:00+17св398094 0.1 1022203
02:00+16всв378511 0.1 1022168
05:00+15всв35925 0.0 102387
08:00+20всв4771100 0.0 1023404
11:00+22в3665100 0.0 1023659
14:00+27в6749100 0.0 10211485
17:00+25в4556100 0.0 1021703
20:00+19ссв337975 0.9 102040
13 августа, сб
сб1323:00+17ююв239430 0.9 102168
02:00+17ссв2293100 0.9 102023
05:00+18ссв3489100 0.2 102079
08:00+18ссв3792100 0.6 1019208
11:00+21св4574100 0.1 1018513
14:00+18всв41093100 2.9 1017620
17:00+18св51191100 1.9 1017524
20:00+18св379298 1.9 1016189
14 августа, вс
вс1423:00+18ссв3990100 0.0 1015205
02:00+17св3994100 0.0 1014195
05:00+16св3896100 0.0 1013193
08:00+20всв478376 0.1 1013327
11:00+25всв465984 0.0 1012847
14:00+26всв5755100 0.0 1012881
17:00+28всв585188 0.0 1010933
20:00+23всв346451 0.0 101047
15 августа, пн
пн1523:00+21всв4117056 0.0 1010202
02:00+19в498296 0.0 1010177
05:00+18всв488593 0.0 1010140
08:00+22в586798 0.0 1009317
11:00+27в574888 0.0 1009914
14:00+24в695799 0.0 1009588
17:00+24в51056100 0.0 1009509
20:00+22в496548 0.0 1008229
16 августа, вт
вт1623:00+19в4108311 0.6 1008243
02:00+18в38935 0.6 1008204
05:00+16в349584 0.0 100893
08:00+21в457225 0.0 1008333
11:00+26вюв34516 0.1 1008857
14:00+27в6549100 0.1 10081226
17:00+22в4768100 0.3 1008234
20:00+21в387499 0.3 1009220